Lincoln, NE

5:49 AM CDT on October 21, 2017 (GMT -0500)
Lincoln Municipal

Weather History for KLNK - July, 2013

Change the Weather History Date:

Saturday, July 27, 2013

  Actual Average Record
Temperature  
Mean Temperature 64 °F 78 °F  
Max Temperature 76 °F 89 °F 108 °F (1930)
Min Temperature 52 °F 66 °F 50 °F (2005)
Degree Days  
Heating Degree Days 1 0  
Month to date heating degree days 1 0  
Since 1 June heating degree days 21 16  
Since 1 July heating degree days 1 0  
Cooling Degree Days 0 13  
Month to date cooling degree days 330 344  
Year to date cooling degree days 648 665  
Since 1 June cooling degree days 561 586  
Growing Degree Days 14 (Base 50)    
Moisture  
Dew Point 46 °F    
Average Humidity 59    
Maximum Humidity 86    
Minimum Humidity 31    
Precipitation  
Precipitation 0.00 in 0.10 in 1.32 in (1896)
Month to date precipitation 0.28 2.98  
Year to date precipitation 18.62 17.67  
Snow  
Snow 0.00 in 0.00 in - ()
Month to date snowfall 0.0 0.0  
Since 1 July snowfall 0.0 0.0  
Snow Depth 0.00 in    
Sea Level Pressure  
Sea Level Pressure 30.09 in    
Wind  
Wind Speed 5 mph (North)    
Max Wind Speed 16 mph    
Max Gust Speed 22 mph    
Visibility 10 miles    
Events      
T = Trace of Precipitation, MM = Missing Value Source: NWS Daily Summary

Daily Weather History Graph

Daily Weather History Graph

Search for Another Location

Airport or City:

Trip Planner

Search our weather history database for the weather conditions in past years. The results will help you decide how hot, cold, wet, or windy it might be!

Date:

Astronomy

Jul. 27, 2013 Rise Set
Actual Time 6:18 AM CDT 8:47 PM CDT
Civil Twilight 5:47 AM CDT 9:18 PM CDT
Nautical Twilight 5:08 AM CDT 9:57 PM CDT
Astronomical Twilight 4:25 AM CDT 10:40 PM CDT
Moon 11:32 PM CDT (7/27) 12:03 PM CDT (7/27)
Length of Visible Light 15h 31m
Length of Day
14h 28m
Waning Gibbous, 70% of the Moon is Illuminated
Jul 27
Waning Gibbous
Jul 29
Last Quarter
Aug 6
New
Aug 14
First Quarter
Aug 20
Full

Hourly Weather History & Observations

Time (CDT) Temp. Dew Point Humidity Pressure Visibility Wind Dir Wind Speed Gust Speed Precip Events Conditions
12:54 AM 55.0 °F 50.0 °F 83% 30.13 in 10.0 mi North 5.8 mph - N/A   Clear
1:54 AM 55.0 °F 51.1 °F 86% 30.12 in 10.0 mi North 5.8 mph - N/A   Clear
2:54 AM 53.1 °F 48.9 °F 86% 30.11 in 10.0 mi North 4.6 mph - N/A   Clear
3:54 AM 57.0 °F 50.0 °F 77% 30.11 in 10.0 mi NNW 5.8 mph - N/A   Scattered Clouds
4:54 AM 55.0 °F 48.9 °F 80% 30.12 in 10.0 mi Calm Calm - N/A   Scattered Clouds
5:54 AM 55.0 °F 50.0 °F 83% 30.12 in 10.0 mi Calm Calm - N/A   Mostly Cloudy
6:54 AM 57.0 °F 50.0 °F 77% 30.15 in 10.0 mi NNW 6.9 mph - N/A   Mostly Cloudy
7:54 AM 60.1 °F 50.0 °F 69% 30.15 in 10.0 mi North 3.5 mph - N/A   Mostly Cloudy
8:54 AM 63.0 °F 48.9 °F 60% 30.16 in 10.0 mi Calm Calm - N/A   Mostly Cloudy
9:54 AM 66.0 °F 46.9 °F 50% 30.15 in 10.0 mi NE 4.6 mph - N/A   Scattered Clouds
10:54 AM 71.1 °F 41.0 °F 34% 30.13 in 10.0 mi North 11.5 mph 20.7 mph N/A   Partly Cloudy
11:54 AM 71.1 °F 42.1 °F 35% 30.12 in 10.0 mi North 9.2 mph 18.4 mph N/A   Partly Cloudy
12:54 PM 73.0 °F 42.1 °F 33% 30.11 in 10.0 mi North 10.4 mph 18.4 mph N/A   Clear
1:54 PM 73.9 °F 43.0 °F 33% 30.09 in 10.0 mi Variable 5.8 mph - N/A   Clear
2:54 PM 73.9 °F 42.1 °F 32% 30.09 in 10.0 mi North 5.8 mph 20.7 mph N/A   Clear
3:54 PM 75.0 °F 43.0 °F 32% 30.06 in 10.0 mi Variable 6.9 mph - N/A   Clear
4:54 PM 75.0 °F 44.1 °F 33% 30.04 in 10.0 mi WNW 5.8 mph - N/A   Clear
5:54 PM 75.0 °F 44.1 °F 33% 30.03 in 10.0 mi North 6.9 mph - N/A   Clear
6:54 PM 73.9 °F 44.1 °F 34% 30.02 in 10.0 mi NNE 5.8 mph - N/A   Clear
7:54 PM 71.1 °F 46.0 °F 41% 30.03 in 10.0 mi NE 6.9 mph - N/A   Clear
8:54 PM 64.0 °F 48.0 °F 56% 30.03 in 10.0 mi NE 6.9 mph - N/A   Clear
9:54 PM 63.0 °F 48.0 °F 58% 30.04 in 10.0 mi Calm Calm - N/A   Clear
10:54 PM 61.0 °F 48.9 °F 64% 30.05 in 10.0 mi WNW 3.5 mph - N/A   Clear
11:54 PM 53.1 °F 48.0 °F 83% 30.06 in 10.0 mi Calm Calm - N/A   Clear